{"data":{"norad_id":64141,"intl_designator":"2025-111U","name":"STARLINK-34054","alt_names":[],"object_type":"PAYLOAD","status":"ACTIVE","operator":null,"country":"US","launch_date":"2025-05-24","launch_site_code":"AFETR","launch_vehicle":null,"mission":null,"orbit_class":"UNKNOWN","rcs_meters":null,"size_class":null,"mass_kg":null,"dimensions":null,"purposes":["comms"],"wikipedia_slug":null,"has_3d_model":false,"image_url":null,"decayed_at":null,"tle_current":{"epoch":"2026-05-24T23:48:04.106016Z","epoch_age_seconds":69597,"freshness":"FRESH","line1":"1 64141U 25111U   26144.99171419  .00014803  00000+0  54635-3 0  9995","line2":"2 64141  43.0024   6.8807 0001261 252.4961 107.5753 15.27582130 57137","mean_motion":15.2758213,"eccentricity":0.0001261,"inclination_deg":43.0024,"raan_deg":6.8807,"arg_perigee_deg":252.4961,"mean_anomaly_deg":107.5753,"bstar":0.00054635,"rev_number":5713,"period_min":94.266617271832,"perigee_km":482.17752329835,"apogee_km":483.90791282325,"semimajor_km":6861.1797180608,"source":"CELESTRAK","updated_at":"2026-05-25T13:38:20.299319Z"}}}